Hourly Weather Pontypool

Today, 12 August, Wednesday

Time Temperature Precipitation Wind Pressure Humidity
00:00 +21°C° 0 mm 1 mps 746 mmHg 86%
01:00 +21°C° 0.3 mm 1 mps 746 mmHg 88%
02:00 +21°C° 0.3 mm 1 mps 745 mmHg 89%
03:00 +21°C° 0.3 mm 1 mps 745 mmHg 90%
04:00 +21°C° 0 mm 1 mps 745 mmHg 90%
05:00 +21°C° 0 mm 1 mps 745 mmHg 91%
06:00 +21°C° 0 mm 1 mps 745 mmHg 91%
07:00 +22°C° 0.1 mm 1 mps 745 mmHg 86%
08:00 +24°C° 0.1 mm 1 mps 745 mmHg 82%
09:00 +25°C° 0.1 mm 2 mps 745 mmHg 77%
10:00 +26°C° 0 mm 2 mps 745 mmHg 71%
11:00 +28°C° 0 mm 2 mps 745 mmHg 65%
12:00 +29°C° 0 mm 2 mps 745 mmHg 58%
13:00 +30°C° 0 mm 2 mps 745 mmHg 57%
14:00 +30°C° 0 mm 2 mps 745 mmHg 55%
15:00 +31°C° 0 mm 2 mps 745 mmHg 53%
16:00 +30°C° 0.2 mm 2 mps 744 mmHg 57%
17:00 +29°C° 0.2 mm 2 mps 744 mmHg 61%
18:00 +29°C° 0.2 mm 2 mps 744 mmHg 66%
19:00 +27°C° 0.7 mm 2 mps 744 mmHg 71%
20:00 +25°C° 0.7 mm 2 mps 744 mmHg 77%
21:00 +23°C° 0.7 mm 1 mps 744 mmHg 83%
22:00 +23°C° 0.9 mm 2 mps 744 mmHg 86%
23:00 +21°C° 0.9 mm 2 mps 744 mmHg 88%

Tomorrow, 13 August, Thursday

Time Temperature Precipitation Wind Pressure Humidity
00:00 +21°C° 0.9 mm 2 mps 744 mmHg 91%
01:00 +20°C° 0.2 mm 2 mps 744 mmHg 92%
02:00 +20°C° 0.2 mm 2 mps 743 mmHg 93%
03:00 +20°C° 0.2 mm 2 mps 743 mmHg 93%
04:00 +20°C° 0 mm 2 mps 743 mmHg 94%
05:00 +19°C° 0 mm 2 mps 743 mmHg 94%
06:00 +19°C° 0 mm 2 mps 743 mmHg 95%
07:00 +20°C° 0 mm 2 mps 743 mmHg 91%
08:00 +21°C° 0 mm 2 mps 744 mmHg 88%
09:00 +23°C° 0 mm 2 mps 744 mmHg 84%
10:00 +24°C° 0 mm 2 mps 744 mmHg 83%
11:00 +24°C° 0 mm 2 mps 744 mmHg 82%
12:00 +24°C° 0 mm 3 mps 744 mmHg 80%
13:00 +25°C° 0.4 mm 2 mps 744 mmHg 79%
14:00 +26°C° 0.4 mm 2 mps 743 mmHg 77%
15:00 +26°C° 0.4 mm 2 mps 743 mmHg 76%
16:00 +26°C° 2 mm 2 mps 743 mmHg 79%
17:00 +25°C° 2 mm 2 mps 743 mmHg 82%
18:00 +24°C° 2 mm 2 mps 743 mmHg 85%
19:00 +23°C° 2.7 mm 2 mps 743 mmHg 88%
20:00 +21°C° 2.7 mm 2 mps 744 mmHg 90%
21:00 +20°C° 2.7 mm 2 mps 744 mmHg 93%
22:00 +20°C° 0.1 mm 3 mps 744 mmHg 93%
23:00 +19°C° 0.1 mm 3 mps 744 mmHg 93%

Day after tomorrow, 14 August, Friday

Time Temperature Precipitation Wind Pressure Humidity
00:00 +19°C° 0.1 mm 3 mps 744 mmHg 94%
01:00 +18°C° 0.3 mm 3 mps 744 mmHg 94%
02:00 +18°C° 0.3 mm 2 mps 744 mmHg 94%
03:00 +18°C° 0.3 mm 2 mps 744 mmHg 95%
04:00 +18°C° 0.1 mm 2 mps 744 mmHg 95%
05:00 +18°C° 0.1 mm 2 mps 744 mmHg 95%
06:00 +18°C° 0.1 mm 2 mps 744 mmHg 95%
07:00 +18°C° 0.1 mm 2 mps 744 mmHg 94%
08:00 +18°C° 0.1 mm 2 mps 744 mmHg 93%
09:00 +18°C° 0.1 mm 2 mps 744 mmHg 92%
10:00 +19°C° 0 mm 2 mps 745 mmHg 91%
11:00 +19°C° 0 mm 2 mps 745 mmHg 90%
12:00 +19°C° 0 mm 2 mps 745 mmHg 89%
13:00 +20°C° 0 mm 2 mps 745 mmHg 88%
14:00 +20°C° 0 mm 2 mps 745 mmHg 87%
15:00 +21°C° 0 mm 1 mps 745 mmHg 86%
16:00 +21°C° 0 mm 1 mps 745 mmHg 87%
17:00 +21°C° 0 mm 1 mps 745 mmHg 87%
18:00 +21°C° 0 mm 1 mps 745 mmHg 87%
19:00 +21°C° 0 mm 1 mps 746 mmHg 88%
20:00 +20°C° 0 mm 1 mps 746 mmHg 89%
21:00 +20°C° 0 mm 1 mps 746 mmHg 90%
22:00 +20°C° 0 mm 1 mps 746 mmHg 90%
23:00 +20°C° 0 mm 1 mps 746 mmHg 91%

15 August, Saturday

Time Temperature Precipitation Wind Pressure Humidity
00:00 +19°C° 0 mm 1 mps 746 mmHg 91%
01:00 +19°C° 0 mm 1 mps 746 mmHg 91%
02:00 +19°C° 0 mm 1 mps 746 mmHg 91%
03:00 +19°C° 0 mm 1 mps 746 mmHg 91%
04:00 +19°C° 0 mm 1 mps 746 mmHg 92%
05:00 +17°C° 0 mm 2 mps 746 mmHg 92%
06:00 +17°C° 0 mm 2 mps 746 mmHg 92%
07:00 +18°C° 0 mm 2 mps 746 mmHg 91%
08:00 +18°C° 0 mm 2 mps 746 mmHg 90%
09:00 +18°C° 0 mm 2 mps 746 mmHg 89%
10:00 +18°C° 0 mm 2 mps 746 mmHg 89%
11:00 +19°C° 0 mm 2 mps 746 mmHg 88%
12:00 +19°C° 0 mm 2 mps 746 mmHg 87%
13:00 +20°C° 0.1 mm 2 mps 746 mmHg 86%
14:00 +20°C° 0.1 mm 2 mps 746 mmHg 85%
15:00 +20°C° 0.1 mm 2 mps 746 mmHg 84%
16:00 +20°C° 0.2 mm 2 mps 746 mmHg 85%
17:00 +20°C° 0.2 mm 2 mps 745 mmHg 86%
18:00 +20°C° 0.2 mm 2 mps 745 mmHg 87%
19:00 +20°C° 0.1 mm 1 mps 745 mmHg 90%
20:00 +19°C° 0.1 mm 1 mps 745 mmHg 93%
21:00 +18°C° 0.1 mm 1 mps 745 mmHg 95%
22:00 +17°C° 0 mm 2 mps 745 mmHg 96%
23:00 +17°C° 0 mm 2 mps 745 mmHg 96%

16 August, Sunday

Time Temperature Precipitation Wind Pressure Humidity
00:00 +17°C° 0 mm 2 mps 744 mmHg 96%
01:00 +17°C° 0 mm 2 mps 744 mmHg 96%
02:00 +17°C° 0 mm 2 mps 744 mmHg 96%
03:00 +17°C° 0 mm 2 mps 743 mmHg 96%
04:00 +17°C° 0 mm 2 mps 743 mmHg 95%
05:00 +17°C° 0 mm 2 mps 743 mmHg 95%
06:00 +17°C° 0 mm 2 mps 743 mmHg 95%
07:00 +18°C° 0 mm 2 mps 743 mmHg 94%
08:00 +18°C° 0 mm 2 mps 743 mmHg 92%
09:00 +18°C° 0 mm 2 mps 743 mmHg 91%
10:00 +19°C° 0.6 mm 2 mps 742 mmHg 91%
11:00 +19°C° 0.6 mm 2 mps 742 mmHg 90%
12:00 +19°C° 0.6 mm 2 mps 742 mmHg 90%
13:00 +20°C° 0.2 mm 2 mps 742 mmHg 83%
14:00 +21°C° 0.2 mm 3 mps 741 mmHg 76%
15:00 +22°C° 0.2 mm 3 mps 741 mmHg 69%
16:00 +21°C° 0.3 mm 3 mps 741 mmHg 72%
17:00 +21°C° 0.3 mm 2 mps 740 mmHg 75%
18:00 +21°C° 0.3 mm 2 mps 740 mmHg 78%
19:00 +19°C° 0.2 mm 2 mps 740 mmHg 83%
20:00 +17°C° 0.2 mm 2 mps 740 mmHg 88%
21:00 +16°C° 0.2 mm 2 mps 740 mmHg 93%
22:00 +16°C° 0 mm 2 mps 740 mmHg 93%
23:00 +16°C° 0 mm 2 mps 739 mmHg 93%

17 August, Monday

Time Temperature Precipitation Wind Pressure Humidity
00:00 +15°C° 0 mm 2 mps 739 mmHg 94%
01:00 +15°C° 0 mm 2 mps 739 mmHg 95%
02:00 +15°C° 0 mm 2 mps 739 mmHg 95%
03:00 +15°C° 0 mm 2 mps 739 mmHg 96%
04:00 +14°C° 0 mm 2 mps 739 mmHg 96%
05:00 +14°C° 0 mm 2 mps 739 mmHg 96%
06:00 +14°C° 0 mm 2 mps 739 mmHg 96%
07:00 +16°C° 0 mm 2 mps 739 mmHg 91%
08:00 +17°C° 0 mm 3 mps 739 mmHg 86%
09:00 +18°C° 0 mm 3 mps 739 mmHg 80%
10:00 +19°C° 0.1 mm 4 mps 739 mmHg 77%
11:00 +19°C° 0.1 mm 5 mps 739 mmHg 73%
12:00 +20°C° 0.1 mm 5 mps 739 mmHg 70%
13:00 +20°C° 0.2 mm 5 mps 739 mmHg 71%
14:00 +20°C° 0.2 mm 6 mps 739 mmHg 73%
15:00 +19°C° 0.2 mm 6 mps 739 mmHg 75%
16:00 +19°C° 0 mm 6 mps 739 mmHg 77%
17:00 +17°C° 0 mm 6 mps 739 mmHg 78%
18:00 +17°C° 0 mm 5 mps 739 mmHg 80%
19:00 +16°C° 0 mm 5 mps 739 mmHg 85%
20:00 +15°C° 0 mm 4 mps 739 mmHg 89%
21:00 +14°C° 0 mm 4 mps 739 mmHg 94%
22:00 +13°C° 0 mm 3 mps 739 mmHg 94%
23:00 +13°C° 0 mm 3 mps 739 mmHg 95%
Show more